EN

Hourly Weather Mayakum

Today, 3 December, Thursday

Time Temperature Precipitation Wind Pressure Humidity
00:00 -2°C° 0 mm 3 mps 752 mmHg 57%
01:00 -2°C° 0 mm 3 mps 753 mmHg 58%
02:00 -4°C° 0 mm 3 mps 753 mmHg 58%
03:00 -4°C° 0 mm 3 mps 753 mmHg 60%
04:00 -5°C° 0 mm 3 mps 753 mmHg 62%
05:00 -5°C° 0 mm 3 mps 754 mmHg 63%
06:00 -6°C° 0 mm 3 mps 754 mmHg 64%
07:00 -6°C° 0 mm 3 mps 754 mmHg 66%
08:00 -6°C° 0 mm 2 mps 754 mmHg 67%
09:00 -6°C° 0 mm 3 mps 754 mmHg 62%
10:00 -5°C° 0 mm 3 mps 754 mmHg 57%
11:00 -3°C° 0 mm 2 mps 755 mmHg 51%
12:00 -2°C° 0 mm 3 mps 754 mmHg 46%
13:00 -1°C° 0 mm 3 mps 754 mmHg 42%
14:00 0°C° 0 mm 3 mps 754 mmHg 38%
15:00 -1°C° 0 mm 3 mps 754 mmHg 41%
16:00 -2°C° 0 mm 3 mps 755 mmHg 44%
17:00 -2°C° 0 mm 3 mps 755 mmHg 48%
18:00 -4°C° 0 mm 3 mps 755 mmHg 52%
19:00 -5°C° 0 mm 3 mps 755 mmHg 56%
20:00 -6°C° 0 mm 3 mps 754 mmHg 60%
21:00 -7°C° 0 mm 3 mps 754 mmHg 61%
22:00 -7°C° 0 mm 3 mps 754 mmHg 62%
23:00 -7°C° 0 mm 3 mps 754 mmHg 63%

Tomorrow, 4 December, Friday

Time Temperature Precipitation Wind Pressure Humidity
00:00 -8°C° 0 mm 3 mps 754 mmHg 63%
01:00 -8°C° 0 mm 3 mps 754 mmHg 63%
02:00 -8°C° 0 mm 3 mps 754 mmHg 64%
03:00 -9°C° 0 mm 3 mps 754 mmHg 65%
04:00 -9°C° 0 mm 3 mps 754 mmHg 66%
05:00 -8°C° 0 mm 2 mps 755 mmHg 67%
06:00 -9°C° 0 mm 2 mps 755 mmHg 68%
07:00 -9°C° 0 mm 2 mps 755 mmHg 70%
08:00 -9°C° 0 mm 2 mps 755 mmHg 71%
09:00 -8°C° 0 mm 2 mps 755 mmHg 64%
10:00 -7°C° 0 mm 2 mps 755 mmHg 56%
11:00 -6°C° 0 mm 2 mps 755 mmHg 49%
12:00 -5°C° 0 mm 2 mps 755 mmHg 45%
13:00 -4°C° 0 mm 2 mps 755 mmHg 41%
14:00 -3°C° 0 mm 2 mps 755 mmHg 38%
15:00 -4°C° 0 mm 2 mps 755 mmHg 41%
16:00 -3°C° 0 mm 1 mps 755 mmHg 45%
17:00 -4°C° 0 mm 1 mps 755 mmHg 49%
18:00 -4°C° 0 mm 1 mps 755 mmHg 51%
19:00 -4°C° 0 mm 1 mps 755 mmHg 53%
20:00 -6°C° 0 mm 1 mps 755 mmHg 54%
21:00 -6°C° 0 mm 1 mps 755 mmHg 54%
22:00 -6°C° 0 mm 1 mps 755 mmHg 54%
23:00 -7°C° 0 mm 2 mps 755 mmHg 53%

Day after tomorrow, 5 December, Saturday

Time Temperature Precipitation Wind Pressure Humidity
00:00 -7°C° 0 mm 2 mps 755 mmHg 56%
01:00 -7°C° 0 mm 2 mps 755 mmHg 60%
02:00 -6°C° 0 mm 2 mps 755 mmHg 63%
03:00 -8°C° 0 mm 3 mps 755 mmHg 71%
04:00 -9°C° 0 mm 3 mps 755 mmHg 79%
05:00 -9°C° 0 mm 3 mps 755 mmHg 87%
06:00 -10°C° 0 mm 3 mps 755 mmHg 87%
07:00 -10°C° 0 mm 3 mps 755 mmHg 86%
08:00 -12°C° 0 mm 3 mps 755 mmHg 86%
09:00 -9°C° 0 mm 2 mps 756 mmHg 78%
10:00 -8°C° 0 mm 2 mps 756 mmHg 70%
11:00 -6°C° 0 mm 2 mps 756 mmHg 62%
12:00 -6°C° 0 mm 2 mps 755 mmHg 59%
13:00 -5°C° 0 mm 2 mps 755 mmHg 56%
14:00 -4°C° 0 mm 2 mps 755 mmHg 53%
15:00 -5°C° 0 mm 2 mps 755 mmHg 55%
16:00 -6°C° 0 mm 2 mps 755 mmHg 56%
17:00 -6°C° 0 mm 2 mps 755 mmHg 58%
18:00 -7°C° 0 mm 2 mps 755 mmHg 60%
19:00 -8°C° 0 mm 2 mps 755 mmHg 61%
20:00 -8°C° 0 mm 2 mps 755 mmHg 63%
21:00 -9°C° 0 mm 2 mps 755 mmHg 64%
22:00 -9°C° 0 mm 2 mps 755 mmHg 65%
23:00 -9°C° 0 mm 2 mps 755 mmHg 66%

6 December, Sunday

Time Temperature Precipitation Wind Pressure Humidity
00:00 -9°C° 0 mm 2 mps 755 mmHg 67%
01:00 -9°C° 0 mm 2 mps 755 mmHg 68%
02:00 -10°C° 0 mm 2 mps 755 mmHg 68%
03:00 -10°C° 0 mm 2 mps 755 mmHg 69%
04:00 -10°C° 0 mm 2 mps 755 mmHg 70%
05:00 -10°C° 0 mm 2 mps 755 mmHg 71%
06:00 -10°C° 0 mm 2 mps 755 mmHg 72%
07:00 -10°C° 0 mm 2 mps 755 mmHg 72%
08:00 -10°C° 0 mm 2 mps 755 mmHg 73%
09:00 -9°C° 0 mm 2 mps 755 mmHg 66%
10:00 -7°C° 0 mm 2 mps 755 mmHg 59%
11:00 -4°C° 0 mm 1 mps 755 mmHg 53%
12:00 -3°C° 0 mm 1 mps 755 mmHg 49%
13:00 -4°C° 0 mm 2 mps 755 mmHg 46%
14:00 -2°C° 0 mm 2 mps 755 mmHg 43%
15:00 -3°C° 0 mm 2 mps 755 mmHg 47%
16:00 -4°C° 0 mm 2 mps 754 mmHg 50%
17:00 -5°C° 0 mm 2 mps 754 mmHg 53%
18:00 -6°C° 0 mm 2 mps 754 mmHg 57%
19:00 -7°C° 0 mm 3 mps 754 mmHg 60%
20:00 -8°C° 0 mm 3 mps 754 mmHg 63%
21:00 -8°C° 0 mm 3 mps 753 mmHg 65%
22:00 -9°C° 0 mm 3 mps 753 mmHg 67%
23:00 -9°C° 0 mm 3 mps 753 mmHg 69%

7 December, Monday

Time Temperature Precipitation Wind Pressure Humidity
00:00 -9°C° 0 mm 3 mps 752 mmHg 71%
01:00 -9°C° 0 mm 3 mps 752 mmHg 72%
02:00 -9°C° 0 mm 3 mps 752 mmHg 74%
03:00 -10°C° 0 mm 3 mps 752 mmHg 74%
04:00 -10°C° 0 mm 3 mps 751 mmHg 73%
05:00 -10°C° 0 mm 3 mps 751 mmHg 73%
06:00 -10°C° 0 mm 3 mps 751 mmHg 73%
07:00 -10°C° 0 mm 3 mps 751 mmHg 73%
08:00 -12°C° 0 mm 3 mps 751 mmHg 72%
09:00 -9°C° 0 mm 3 mps 751 mmHg 65%
10:00 -8°C° 0 mm 3 mps 752 mmHg 58%
11:00 -7°C° 0 mm 3 mps 752 mmHg 51%
12:00 -6°C° 0 mm 3 mps 752 mmHg 47%
13:00 -5°C° 0 mm 4 mps 752 mmHg 43%
14:00 -4°C° 0 mm 4 mps 752 mmHg 40%
15:00 -5°C° 0 mm 3 mps 752 mmHg 44%
16:00 -6°C° 0 mm 3 mps 753 mmHg 49%
17:00 -7°C° 0 mm 3 mps 753 mmHg 53%
18:00 -8°C° 0 mm 3 mps 754 mmHg 59%
19:00 -9°C° 0 mm 3 mps 754 mmHg 64%
20:00 -9°C° 0 mm 3 mps 754 mmHg 70%
21:00 -10°C° 0 mm 3 mps 755 mmHg 74%
22:00 -12°C° 0 mm 3 mps 755 mmHg 78%
23:00 -12°C° 0 mm 3 mps 755 mmHg 82%

8 December, Tuesday

Time Temperature Precipitation Wind Pressure Humidity
00:00 -10°C° 0 mm 2 mps 755 mmHg 83%
01:00 -12°C° 0 mm 2 mps 755 mmHg 84%
02:00 -12°C° 0 mm 2 mps 755 mmHg 85%
03:00 -12°C° 0 mm 2 mps 756 mmHg 86%
04:00 -13°C° 0 mm 2 mps 756 mmHg 87%
05:00 -13°C° 0 mm 2 mps 756 mmHg 87%
06:00 -13°C° 0 mm 2 mps 756 mmHg 87%
07:00 -13°C° 0 mm 2 mps 757 mmHg 88%
08:00 -14°C° 0 mm 2 mps 757 mmHg 88%
09:00 -12°C° 0 mm 2 mps 757 mmHg 79%
10:00 -10°C° 0 mm 2 mps 758 mmHg 70%
11:00 -9°C° 0 mm 2 mps 758 mmHg 61%
12:00 -8°C° 0 mm 2 mps 758 mmHg 55%
13:00 -6°C° 0 mm 2 mps 758 mmHg 50%
14:00 -5°C° 0 mm 2 mps 758 mmHg 44%
15:00 -6°C° 0 mm 2 mps 758 mmHg 48%
16:00 -7°C° 0 mm 2 mps 758 mmHg 51%
17:00 -8°C° 0 mm 2 mps 759 mmHg 55%
18:00 -8°C° 0 mm 2 mps 759 mmHg 59%
19:00 -9°C° 0 mm 2 mps 759 mmHg 64%
20:00 -9°C° 0 mm 2 mps 760 mmHg 68%
21:00 -10°C° 0 mm 2 mps 760 mmHg 71%
22:00 -10°C° 0 mm 2 mps 760 mmHg 73%
23:00 -10°C° 0 mm 2 mps 760 mmHg 76%
Show more

We Need Your Consent

Meteoprog and our Service Providers may store and access personal data such as cookies, device identifiers or other similar technologies on your device and process such data to personalise content and ads, as well as provide social media features and to analyse the traffic.

  • Store and/or access information on your device

    Cookies, device identifiers or other information can be stored or accessed on your device for the purposes indicated above.

  • Personalised ads and content, ad and content measurement, audience insights, and products development

    Ads and content can be personalised based on a profile. More data can be added to better personalise ads and content. Ad and content performance can be measured. Insights about the audience who saw the ads and content can be derived. Such data can be used to develop or improve user’s experience, systems and software.

By clicking ‘I Agree’ you will allow the use of indicated cookies, device identifiers, web beacons or other similar technologies. Your settings can be changed in the browser on your device.

For certain purposes, legitimate interests may be relied on, rather than consent. You can read more about this in our Privacy and Cookie Policy.